Вернуться в каталог

STARLINK-3226

АктивенСвязьVLEO
NORAD 49740·PAYLOAD·🇺🇸 United States

Запущен Dec 2, 2021 с Cape Canaveral Space Force Station

Loading…

Ближайшие Пролёты (ближайшие 24 часа)

TLE

СвежийSource: CelesTrak SupGP

Эпоха: Sep 14, 2026, 20:42 UTC

1 49740C 21115S   26257.86298611 -.00009497  00000+0 -30566-3 0  2577
2 49740  53.1592   6.0062 0001215  83.9618 198.4283 15.31677856    14

Отслеживайте STARLINK-3226 в реальном времени с AllMySat

Download on the App Store